Location: Newark
(48.1500°N, 2.9667°W)
Time: 18:04:20
(UTC+00:00)

Transit 2A - Pass Details

Date: 01 February 2020
Orbit: 600 x 959 km, 66.7° (Epoch: 22 February)

Event Time Altitude Azimuth Distance (km) Brightness Sun altitude
Rises 17:17:10 0° 170° (S) 2,880 9.2 -1.8°
Reaches altitude 10° 17:20:04 10° 150° (SSE) 1,952 8.1 -2.3°
Maximum altitude 17:22:54 17° 109° (ESE) 1,528 7.2 -2.7°
Drops below altitude 10° 17:25:44 10° 68° (ENE) 1,948 7.4 -3.1°
Enters shadow 17:27:38 - 53° (NE) 2,531 8.1 -3.4°
Sets 17:28:37 0° 49° (NE) 2,870 - -3.6°
